STARLINK-5666, 55349

Orbit data source: Space-Track

STARLINK-5666, 55349 is a payload satellite owned by SpaceX/Seattle (US) in LEO that was launched on Thu, 26 Jan 2023 UTC via an FALCON 9 launch vehicle from the Air Force Eastern Test Range (AFETR). Payload-class satellites include a variety of spacecraft equipped with specific instruments for various scientific and technological missions. These include communications satellites like Starlink; space stations such as the ISS; scientific satellites like the Hubble; Earth observation satellites from companies like Planet Labs, Umbra, and HawkEye 360; GPS; miniature CubeSats for education and research; and military/defense satellites.

Loading next visibility...
Identifier
55349, 2023-013U
Orbit
LEO
Country
Flag of USUS
Related business
Manufacturer
SpaceX/Seattle
Mission
Operational Commercial Communications
Bus & Motor
STARLINK, Unknown motor
Mass
305 kg wet, ~290 kg dry
Launch date (UTC)
2023-01-26 (3 years ago)
Launch vehicle
FALCON 9
Launch site
Air Force Eastern Test Range (AFETR)
Object type
Payload
Rocket body
Debris
Shape & HBR
Box + 1 Pan, 10.1 m
Radar Cross Section
13.562 m², Large (>1 m²)

Expand to show TLE details & history
Last TLE update: 11 hours ago

TLE from 11 hours ago
0 STARLINK-5666
1 55349U 23013U   25349.81974543  .00000073  00000-0  20464-4 0  9999
2 55349  43.0056  36.0189 0001310 273.7181  86.3512 15.02541090159093
Epoch: 2025-12-15T19:40Z
TLE epoch observation values (Epoch: 2025-12-15T19:40:26.005Z)
Latitude
0.00003°
Longitude
16.19774°
Altitude
558.785 km
Speed
7.584 km/s
True Right ascension
02h 24m 04s
True Declination
0° 00' 00"
Sunlit
Object was in full shadow at epoch
Visualization orbit readout
Latitude
Unknown
Longitude
Unknown
Altitude
Unknown
Speed
Unknown
Apparent Right ascension
Unknown
Apparent Declination
Unknown
Sunlit
N/A
Visualization observer readout
Local Sidereal Time
05:29:59
Azimuth
Unknown
Elevation
Unknown
Doppler factor
Unknown
Orbital elements
Apogee altitude
561.896 km
Perigee altitude
560.078 km
Semi-major axis
6,939.124 km
Eccentricity
0.00013
Inclination
43.0056°
RAAN
36.0189°
Arg. of periapsis
273.7181°
True anomaly
86.36618°
Mean anomaly
86.3512°
Eccentric anomaly
86.35869°
Mean motion
3.75479 °/min
Orbital period
95.88 mins
BSTAR
0.000020464
Loading maneuver chart data...
Computing Atmospheric mass density...
Loading historical data...
Loading historical data...
Loading historical data...
Loading historical data...
Loading historical data...
Loading historical data...
Loading historical data...

Documentation

Showing up to 5 results
|